DM1MT Weather Reports


time (UTC)temp
F
wind
direction
speed
knots
gust
knots
rain 1hr
in
rain 24hr
in
rain mn
in
humidity
%
barometer
mb
20260506142355 66 220 4.3 8.7 0.00 0.33 0.02 61 996.7
20260506141330 66 196 5.2 8.7 0.00 0.35 0.02 62 996.9
20260506140329 66 231 4.3 8.7 0.00 0.35 0.02 62 996.5
20260506135350 66 220 4.3 13.0 0.00 0.35 0.02 59 996.6
20260506134329 66 230 4.3 11.3 0.00 0.35 0.02 60 996.6
20260506133315 66 225 5.2 11.3 0.00 0.35 0.02 60 996.6
20260506132309 65 239 4.3 7.0 0.00 0.35 0.02 61 996.6
20260506131349 65 206 5.2 7.0 0.00 0.35 0.02 63 996.9
20260506130349 65 204 6.1 13.0 0.00 0.35 0.02 62 996.6
20260506125437 64 195 9.6 14.8 0.00 0.35 0.02 63 996.6
20260506124349 64 196 4.3 11.3 0.00 0.35 0.02 64 996.7
20260506123329 64 240 2.6 4.3 0.00 0.35 0.02 65 996.9
20260506122429 64 260 6.1 8.7 0.00 0.35 0.02 64 996.6
20260506121315 64 188 4.3 8.7 0.00 0.35 0.02 64 996.9
20260506120329 64 212 5.2 7.0 0.00 0.35 0.02 65 996.6
20260506115249 63 218 6.1 11.3 0.00 0.35 0.02 64 996.9
20260506114349 63 274 2.6 4.3 0.00 0.35 0.02 65 996.8
20260506113416 63 215 3.5 8.7 0.00 0.35 0.02 66 996.9
20260506112310 63 226 3.5 11.3 0.00 0.35 0.02 67 996.9
20260506111249 63 204 7.0 13.0 0.00 0.35 0.02 66 997.0
20260506110249 63 204 3.5 7.0 0.00 0.35 0.02 68 996.8
20260506105249 64 238 4.3 8.7 0.00 0.35 0.02 66 997.0
20260506104729 64 240 4.3 8.7 0.00 0.35 0.02 65 996.9
20260506103329 63 221 2.6 4.3 0.00 0.35 0.02 66 997.2
20260506102309 63 193 5.2 8.7 0.00 0.35 0.02 65 997.1
20260506101309 63 225 7.8 14.8 0.00 0.35 0.02 65 997.1
20260506100309 62 224 5.2 8.7 0.00 0.35 0.02 68 997.1
20260506095309 61 214 7.0 13.0 0.00 0.35 0.02 70 997.1
20260506094309 61 192 2.6 7.0 0.00 0.35 0.02 73 997.1
20260506093309 61 191 4.3 8.7 0.00 0.35 0.02 74 997.2
20260506092242 61 156 2.6 7.0 0.00 0.35 0.02 74 997.2
20260506091709 61 201 4.3 8.7 0.00 0.35 0.02 73 997.2
20260506090329 61 237 6.1 11.3 0.00 0.35 0.02 72 997.0
20260506084829 62 230 4.3 11.3 0.00 0.35 0.02 71 997.0
20260506083809 62 245 6.1 8.7 0.00 0.35 0.02 72 996.9
20260506082829 61 205 6.1 13.0 0.00 0.35 0.02 71 996.8
20260506081809 60 224 4.3 11.3 0.00 0.35 0.02 75 996.8
20260506081309 59 218 7.0 13.0 0.00 0.35 0.02 78 997.0
20260506072749 58 209 4.3 11.3 0.00 0.35 0.02 86 996.8
20260506071829 58 217 5.2 7.0 0.00 0.35 0.02 87 996.8
20260506070809 58 227 5.2 11.3 0.00 0.35 0.02 88 996.8
20260506061809 56 235 1.7 4.3 0.00 0.35 0.02 94 996.6
20260506060714 55 179 2.6 8.7 0.00 0.35 0.02 95 996.6
20260506050848 55 204 0.9 1.7 0.00 0.35 0.02 97 996.6
20260506044809 54 0.0 0.0 0.00 0.35 0.02 97 996.8
20260506043849 54 219 0.0 1.7 0.00 0.35 0.02 97 996.8
20260506042909 54 225 1.7 4.3 0.00 0.35 0.02 97 996.5
20260506041721 54 215 3.5 4.3 0.00 0.35 0.02 97 996.8
20260506040748 54 224 1.7 7.0 0.00 0.35 0.02 98 996.6
20260506035808 54 227 0.9 4.3 0.00 0.35 0.02 98 996.5
20260506034733 54 221 1.7 4.3 0.00 0.35 0.02 98 996.8
20260506033814 55 226 0.9 4.3 0.00 0.35 0.02 98 996.8
20260506032808 55 221 3.5 7.0 0.00 0.35 0.02 98 996.9
20260506031908 55 0.0 0.0 0.00 0.35 0.02 98 996.8
20260506030835 55 235 0.0 1.7 0.00 0.35 0.02 98 996.8
20260506025828 55 207 1.7 4.3 0.00 0.35 0.02 98 996.8
20260506024717 55 215 0.9 4.3 0.00 0.35 0.02 98 997.0
20260506024008 55 189 1.7 4.3 0.00 0.35 0.02 98 996.9
20260506022855 55 199 0.9 4.3 0.00 0.35 0.02 98 997.2
20260506021855 55 229 7.0 11.3 0.00 0.35 0.02 98 997.2
20260506020816 55 216 3.5 7.0 0.00 0.35 0.02 98 997.1
20260506015838 55 244 3.5 8.7 0.00 0.35 0.02 98 997.1
20260506014741 55 218 4.3 8.7 0.00 0.35 0.02 98 997.2
20260506013828 55 211 3.5 8.7 0.00 0.35 0.02 98 997.2
20260506012808 55 205 4.3 7.0 0.00 0.35 0.02 98 997.3
20260506011816 56 214 6.1 13.0 0.00 0.35 0.02 98 997.3
20260506010755 56 221 5.2 8.7 0.00 0.35 0.02 98 997.2
20260506005828 56 196 1.7 7.0 0.00 0.35 0.02 98 997.3
20260506004908 56 217 4.3 8.7 0.00 0.35 0.02 98 997.3
20260506003915 56 171 3.5 11.3 0.00 0.35 0.02 98 997.3
20260506002934 56 174 1.7 7.0 0.00 0.35 0.02 98 997.5
20260506001808 56 174 3.5 7.0 0.00 0.35 0.02 98 997.3
20260506000908 56 177 3.5 7.0 0.02 0.35 0.02 98 997.7
20260505235908 56 202 2.6 7.0 0.02 0.35 0.02 98 997.7
20260505234855 56 186 1.7 4.3 0.02 0.35 0.02 98 997.8
20260505233812 56 190 1.7 7.0 0.02 0.35 0.02 98 997.8
20260505232828 57 175 3.5 8.7 0.02 0.35 0.02 98 997.8
20260505231908 57 170 3.5 8.7 0.02 0.35 0.02 98 997.8
20260505230755 57 172 3.5 8.7 0.00 0.33 0.00 98 997.9
20260505225808 57 161 0.9 1.7 0.00 0.33 0.00 98 998.0
20260505225049 57 0.0 1.7 0.00 0.33 0.00 98 998.2
20260505223733 57 0.0 0.0 0.00 0.33 0.00 98 998.0
20260505222728 57 0.0 0.0 0.00 0.33 0.00 98 998.0
20260505221751 57 171 0.0 1.7 0.00 0.33 0.00 98 998.3
20260505220823 57 0.0 1.7 0.00 0.33 0.00 98 998.4
20260505215534 57 157 0.0 1.7 0.00 0.33 0.33 98 998.3
20260505214712 57 201 0.0 1.7 0.00 0.33 0.33 98 998.3
20260505213635 58 181 0.0 1.7 0.00 0.33 0.33 98 998.3
20260505212652 57 0.0 0.0 0.00 0.33 0.33 98 998.3
20260505211648 57 0.0 1.7 0.00 0.33 0.33 98 998.4
20260505210612 57 0.0 0.0 0.00 0.33 0.33 98 998.4
20260505205608 57 0.0 0.0 0.00 0.33 0.33 97 998.4
20260505204708 57 0.0 0.0 0.00 0.33 0.33 97 998.4
20260505203648 57 0.0 0.0 0.00 0.33 0.33 97 998.3
20260505202749 57 0.0 0.0 0.00 0.33 0.33 97 998.2
20260505201612 57 0.0 0.0 0.00 0.33 0.33 97 998.6
20260505200648 57 0.0 0.0 0.00 0.33 0.33 97 998.2
20260505195708 57 0.0 0.0 0.00 0.33 0.33 97 998.3
20260505194727 57 0.0 0.0 0.00 0.33 0.33 96 998.3
20260505193728 57 0.0 0.0 0.00 0.33 0.33 96 998.1
20260505192648 58 0.0 0.0 0.00 0.33 0.33 96 998.3
20260505191555 58 0.0 0.0 0.00 0.33 0.33 96 998.2
20260505190628 58 0.0 0.0 0.00 0.33 0.33 96 998.0
20260505185655 58 0.0 0.0 0.00 0.33 0.33 95 998.1
20260505184648 58 0.0 0.0 0.00 0.33 0.33 95 998.0
20260505183751 58 0.0 0.0 0.00 0.33 0.33 95 998.2
20260505182707 58 0.0 0.0 0.00 0.33 0.33 95 998.3
20260505181627 58 0.0 0.0 0.00 0.33 0.33 95 998.1
20260505180627 58 232 0.0 1.7 0.00 0.33 0.33 95 998.2
20260505175707 58 0.0 0.0 0.00 0.33 0.33 94 998.3
20260505174728 58 0.0 0.0 0.00 0.33 0.33 94 998.2
20260505173553 59 279 2.6 4.3 0.00 0.33 0.33 94 998.2
20260505172708 59 226 0.9 1.7 0.02 0.33 0.33 94 998.5
20260505171635 59 230 1.7 4.3 0.02 0.33 0.33 94 998.2
20260505170747 59 237 0.9 1.7 0.02 0.33 0.33 94 998.2
20260505165611 59 243 0.9 1.7 0.02 0.33 0.33 93 998.2
20260505164647 59 225 0.9 4.3 0.02 0.33 0.33 93 998.4
20260505163628 59 229 1.7 4.3 0.02 0.33 0.33 93 998.3
20260505162634 59 260 0.0 1.7 0.00 0.31 0.31 93 998.7
20260505161914 59 222 0.9 7.0 0.01 0.31 0.31 93 998.5
20260505160651 59 226 1.7 4.3 0.02 0.31 0.31 93 998.5
20260505152631 59 257 1.7 7.0 0.27 0.31 0.31 92 998.2
20260505151548 59 259 2.6 4.3 0.30 0.30 0.30 91 998.5
20260505150635 59 262 2.6 4.3 0.29 0.29 0.29 90 998.5